Time,TemperatureF,DewpointF,PressureIn,WindDirection,WindDirectionDegrees,WindSpeedMPH,WindSpeedGustMPH,Humidity,HourlyPrecipIn,Conditions,Clouds,dailyrainin,SoftwareType,DateUTC
2013-05-29 00:00:00,53.9,43.6,30.18,North,0,1.0,0.0,68,0.00,,CLR,-99.99,VWS V14.01,2013-05-29 04:00:00,
2013-05-29 00:01:00,53.9,43.6,30.18,North,0,1.0,0.0,68,0.00,,CLR,-99.99,VWS V14.01,2013-05-29 04:01:00,
2013-05-29 00:02:00,53.7,43.8,30.19,North,0,1.0,0.0,69,0.00,,CLR,-99.99,VWS V14.01,2013-05-29 04:02:00,
2013-05-29 00:03:00,53.7,43.8,30.18,North,0,1.0,0.0,69,0.00,,CLR,-99.99,VWS V14.01,2013-05-29 04:03:00,
2013-05-29 00:07:00,53.4,43.9,30.19,North,0,1.0,0.0,70,0.00,,CLR,-99.99,VWS V14.01,2013-05-29 04:07:00,
2013-05-29 00:11:00,53.4,44.2,30.18,North,0,1.0,0.0,71,0.00,,CLR,-99.99,VWS V14.01,2013-05-29 04:11:00,
2013-05-29 00:17:00,53.2,44.0,30.18,North,0,1.0,0.0,71,0.00,,CLR,-99.99,VWS V14.01,2013-05-29 04:17:00,
2013-05-29 00:23:00,53.2,43.7,30.18,North,0,1.0,0.0,70,0.00,,CLR,-99.99,VWS V14.01,2013-05-29 04:23:00,
2013-05-29 00:29:00,53.4,43.5,30.18,North,0,1.0,0.0,69,0.00,,CLR,-99.99,VWS V14.01,2013-05-29 04:29:00,
2013-05-29 00:35:00,53.4,43.1,30.18,North,0,1.0,0.0,68,0.00,,CLR,-99.99,VWS V14.01,2013-05-29 04:35:00,
2013-05-29 00:40:00,53.6,42.9,30.18,North,0,1.0,0.0,67,0.00,,CLR,-99.99,VWS V14.01,2013-05-29 04:40:00,
2013-05-29 00:45:00,53.7,42.6,30.18,North,0,1.0,0.0,66,0.00,,CLR,-99.99,VWS V14.01,2013-05-29 04:45:00,
2013-05-29 00:50:00,53.9,42.8,30.18,North,0,1.0,0.0,66,0.00,,CLR,-99.99,VWS V14.01,2013-05-29 04:50:00,
2013-05-29 00:55:00,53.7,42.6,30.18,North,0,1.0,0.0,66,0.00,,CLR,-99.99,VWS V14.01,2013-05-29 04:55:00,
2013-05-29 01:00:00,53.7,42.6,30.18,North,0,1.0,0.0,66,0.00,,CLR,-99.99,VWS V14.01,2013-05-29 05:00:00,
2013-05-29 01:06:00,53.7,42.6,30.18,North,0,1.0,0.0,66,0.00,,CLR,-99.99,VWS V14.01,2013-05-29 05:06:00,
2013-05-29 01:12:00,53.7,42.6,30.17,North,0,1.0,0.0,66,0.00,,CLR,-99.99,VWS V14.01,2013-05-29 05:12:00,
2013-05-29 01:18:00,53.7,42.6,30.17,North,0,1.0,0.0,66,0.00,,CLR,-99.99,VWS V14.01,2013-05-29 05:18:00,
2013-05-29 01:24:00,53.4,42.3,30.17,North,0,1.0,0.0,66,0.00,,CLR,-99.99,VWS V14.01,2013-05-29 05:24:00,
2013-05-29 01:30:00,53.4,42.3,30.17,North,0,1.0,0.0,66,0.00,,CLR,-99.99,VWS V14.01,2013-05-29 05:30:00,
2013-05-29 01:35:00,53.7,42.6,30.16,North,0,1.0,0.0,66,0.00,,CLR,-99.99,VWS V14.01,2013-05-29 05:35:00,
2013-05-29 01:40:00,54.1,42.6,30.16,North,0,1.0,0.0,65,0.00,,CLR,-99.99,VWS V14.01,2013-05-29 05:40:00,
2013-05-29 01:45:00,54.3,42.8,30.16,North,0,1.0,0.0,65,0.00,,CLR,-99.99,VWS V14.01,2013-05-29 05:45:00,
2013-05-29 01:50:00,54.5,42.6,30.16,North,0,1.0,0.0,64,0.00,,CLR,-99.99,VWS V14.01,2013-05-29 05:50:00,
2013-05-29 01:55:00,54.3,42.8,30.16,North,0,1.0,0.0,65,0.00,,CLR,-99.99,VWS V14.01,2013-05-29 05:55:00,
2013-05-29 02:00:00,54.1,42.6,30.17,North,0,1.0,0.0,65,0.00,,CLR,-99.99,VWS V14.01,2013-05-29 06:00:00,
2013-05-29 02:06:00,54.3,42.8,30.17,North,0,1.0,0.0,65,0.00,,CLR,-99.99,VWS V14.01,2013-05-29 06:06:00,
2013-05-29 02:12:00,54.3,42.4,30.17,North,0,1.0,0.0,64,0.00,,CLR,-99.99,VWS V14.01,2013-05-29 06:12:00,
2013-05-29 02:18:00,54.5,42.6,30.16,North,0,1.0,0.0,64,0.00,,CLR,-99.99,VWS V14.01,2013-05-29 06:18:00,
2013-05-29 02:24:00,54.5,42.6,30.16,North,0,1.0,0.0,64,0.00,,CLR,-99.99,VWS V14.01,2013-05-29 06:24:00,
2013-05-29 02:30:00,54.3,42.4,30.15,North,0,1.0,0.0,64,0.00,,CLR,-99.99,VWS V14.01,2013-05-29 06:30:00,
2013-05-29 02:35:00,54.5,42.6,30.15,North,0,1.0,0.0,64,0.00,,CLR,-99.99,VWS V14.01,2013-05-29 06:35:00,
2013-05-29 02:40:00,54.3,42.4,30.15,North,0,1.0,0.0,64,0.00,,CLR,-99.99,VWS V14.01,2013-05-29 06:40:00,
2013-05-29 02:45:00,54.3,42.4,30.15,North,0,1.0,0.0,64,0.00,,CLR,-99.99,VWS V14.01,2013-05-29 06:45:00,
2013-05-29 02:50:00,54.3,42.4,30.15,North,0,1.0,0.0,64,0.00,,CLR,-99.99,VWS V14.01,2013-05-29 06:50:00,
2013-05-29 02:55:00,54.1,42.2,30.15,North,0,1.0,0.0,64,0.00,,CLR,-99.99,VWS V14.01,2013-05-29 06:55:00,
2013-05-29 03:00:00,54.1,42.2,30.15,North,0,1.0,0.0,64,0.00,,CLR,-99.99,VWS V14.01,2013-05-29 07:00:00,
2013-05-29 03:06:00,54.1,42.2,30.15,North,0,1.0,0.0,64,0.00,,CLR,-99.99,VWS V14.01,2013-05-29 07:06:00,
2013-05-29 03:11:00,54.3,42.4,30.15,North,0,1.0,0.0,64,0.00,,CLR,-99.99,VWS V14.01,2013-05-29 07:11:00,
2013-05-29 03:17:00,54.3,42.4,30.14,North,0,1.0,0.0,64,0.00,,CLR,-99.99,VWS V14.01,2013-05-29 07:17:00,
2013-05-29 03:23:00,54.3,42.4,30.15,North,0,1.0,0.0,64,0.00,,CLR,-99.99,VWS V14.01,2013-05-29 07:23:00,
2013-05-29 03:29:00,54.1,42.6,30.14,North,0,1.0,0.0,65,0.00,,CLR,-99.99,VWS V14.01,2013-05-29 07:29:00,
2013-05-29 03:35:00,54.1,42.6,30.14,North,0,1.0,0.0,65,0.00,,CLR,-99.99,VWS V14.01,2013-05-29 07:35:00,
2013-05-29 03:40:00,54.3,42.8,30.15,North,0,1.0,0.0,65,0.00,,CLR,-99.99,VWS V14.01,2013-05-29 07:40:00,
2013-05-29 03:45:00,54.3,42.4,30.14,North,0,1.0,0.0,64,0.00,,CLR,-99.99,VWS V14.01,2013-05-29 07:45:00,
2013-05-29 03:50:00,54.1,42.2,30.14,North,0,1.0,0.0,64,0.00,,CLR,-99.99,VWS V14.01,2013-05-29 07:50:00,
2013-05-29 03:55:00,54.1,42.2,30.14,North,0,1.0,0.0,64,0.00,,CLR,-99.99,VWS V14.01,2013-05-29 07:55:00,
2013-05-29 04:00:00,54.1,42.6,30.14,North,0,1.0,0.0,65,0.00,,CLR,-99.99,VWS V14.01,2013-05-29 08:00:00,
2013-05-29 04:05:00,54.1,42.6,30.14,North,0,1.0,0.0,65,0.00,,CLR,-99.99,VWS V14.01,2013-05-29 08:05:00,
2013-05-29 04:10:00,54.1,43.0,30.14,North,0,1.0,0.0,66,0.00,,CLR,-99.99,VWS V14.01,2013-05-29 08:10:00,
2013-05-29 04:15:00,53.9,43.2,30.14,North,0,1.0,0.0,67,0.00,,CLR,-99.99,VWS V14.01,2013-05-29 08:15:00,
2013-05-29 04:20:00,53.7,43.0,30.14,North,0,1.0,0.0,67,0.00,,CLR,-99.99,VWS V14.01,2013-05-29 08:20:00,
2013-05-29 04:25:00,53.4,43.5,30.14,North,0,1.0,0.0,69,0.00,,CLR,-99.99,VWS V14.01,2013-05-29 08:25:00,
2013-05-29 04:30:00,53.2,43.7,30.14,North,0,1.0,0.0,70,0.00,,CLR,-99.99,VWS V14.01,2013-05-29 08:30:00,
2013-05-29 04:35:00,53.2,44.0,30.14,North,0,1.0,0.0,71,0.00,,CLR,-99.99,VWS V14.01,2013-05-29 08:35:00,
2013-05-29 04:40:00,52.8,43.7,30.14,North,0,1.0,0.0,71,0.00,,CLR,-99.99,VWS V14.01,2013-05-29 08:40:00,
2013-05-29 04:45:00,52.8,43.7,30.14,North,0,1.0,0.0,71,0.00,,CLR,-99.99,VWS V14.01,2013-05-29 08:45:00,
2013-05-29 04:50:00,52.7,43.6,30.14,North,0,1.0,0.0,71,0.00,,CLR,-99.99,VWS V14.01,2013-05-29 08:50:00,
2013-05-29 04:55:00,52.7,43.9,30.14,North,0,1.0,0.0,72,0.00,,CLR,-99.99,VWS V14.01,2013-05-29 08:55:00,
2013-05-29 05:00:00,52.7,43.9,30.15,North,0,1.0,0.0,72,0.00,,CLR,-99.99,VWS V14.01,2013-05-29 09:00:00,
2013-05-29 05:05:00,52.7,43.9,30.15,North,0,1.0,0.0,72,0.00,,CLR,-99.99,VWS V14.01,2013-05-29 09:05:00,
2013-05-29 05:10:00,52.5,44.1,30.15,North,0,1.0,0.0,73,0.00,,CLR,-99.99,VWS V14.01,2013-05-29 09:10:00,
2013-05-29 05:15:00,52.5,44.1,30.16,North,0,1.0,0.0,73,0.00,,CLR,-99.99,VWS V14.01,2013-05-29 09:15:00,
2013-05-29 05:20:00,52.3,43.9,30.16,North,0,1.0,0.0,73,0.00,,CLR,-99.99,VWS V14.01,2013-05-29 09:20:00,
2013-05-29 05:25:00,52.3,44.3,30.15,North,0,1.0,0.0,74,0.00,,CLR,-99.99,VWS V14.01,2013-05-29 09:25:00,
2013-05-29 05:30:00,52.3,44.6,30.15,North,0,1.0,0.0,75,0.00,,CLR,-99.99,VWS V14.01,2013-05-29 09:30:00,
2013-05-29 05:35:00,52.3,44.6,30.15,North,0,1.0,0.0,75,0.00,,CLR,-99.99,VWS V14.01,2013-05-29 09:35:00,
2013-05-29 05:40:00,52.3,45.0,30.15,North,0,1.0,0.0,76,0.00,,CLR,-99.99,VWS V14.01,2013-05-29 09:40:00,
2013-05-29 05:45:00,52.3,45.3,30.15,North,0,1.0,0.0,77,0.00,,CLR,-99.99,VWS V14.01,2013-05-29 09:45:00,
2013-05-29 05:50:00,52.3,45.3,30.15,North,0,1.0,0.0,77,0.00,,CLR,-99.99,VWS V14.01,2013-05-29 09:50:00,
2013-05-29 05:55:00,52.3,45.7,30.15,North,0,1.0,0.0,78,0.00,,CLR,-99.99,VWS V14.01,2013-05-29 09:55:00,
2013-05-29 06:00:00,52.3,45.7,30.15,North,0,1.0,0.0,78,0.00,,CLR,-99.99,VWS V14.01,2013-05-29 10:00:00,
2013-05-29 06:05:00,52.3,46.0,30.14,North,0,1.0,0.0,79,0.00,,CLR,-99.99,VWS V14.01,2013-05-29 10:05:00,
2013-05-29 06:10:00,52.3,46.3,30.14,North,0,1.0,0.0,80,0.00,,CLR,-99.99,VWS V14.01,2013-05-29 10:10:00,
2013-05-29 06:15:00,52.3,46.3,30.14,North,0,1.0,0.0,80,0.00,,CLR,-99.99,VWS V14.01,2013-05-29 10:15:00,
2013-05-29 06:20:00,52.1,46.5,30.13,North,0,1.0,0.0,81,0.00,,CLR,-99.99,VWS V14.01,2013-05-29 10:20:00,
2013-05-29 06:25:00,52.3,46.7,30.13,North,0,1.0,0.0,81,0.00,,CLR,-99.99,VWS V14.01,2013-05-29 10:25:00,
2013-05-29 06:30:00,52.3,47.0,30.14,North,0,1.0,0.0,82,0.00,,CLR,-99.99,VWS V14.01,2013-05-29 10:30:00,
2013-05-29 06:35:00,52.3,47.0,30.13,North,0,1.0,0.0,82,0.00,,CLR,-99.99,VWS V14.01,2013-05-29 10:35:00,
2013-05-29 06:40:00,52.3,47.3,30.14,North,0,1.0,0.0,83,0.00,,CLR,-99.99,VWS V14.01,2013-05-29 10:40:00,
2013-05-29 06:45:00,52.3,47.3,30.14,North,0,1.0,0.0,83,0.00,,CLR,-99.99,VWS V14.01,2013-05-29 10:45:00,
2013-05-29 06:50:00,52.3,47.3,30.13,North,0,1.0,0.0,83,0.00,,CLR,-99.99,VWS V14.01,2013-05-29 10:50:00,
2013-05-29 06:55:00,52.5,47.5,30.13,North,0,1.0,0.0,83,0.00,,CLR,-99.99,VWS V14.01,2013-05-29 10:55:00,
2013-05-29 07:00:00,52.7,47.7,30.13,North,0,1.0,0.0,83,0.00,,CLR,-99.99,VWS V14.01,2013-05-29 11:00:00,
2013-05-29 07:05:00,52.5,47.5,30.13,North,0,1.0,0.0,83,0.00,,CLR,-99.99,VWS V14.01,2013-05-29 11:05:00,
2013-05-29 07:11:00,52.5,47.5,30.14,North,0,1.0,0.0,83,0.00,,CLR,-99.99,VWS V14.01,2013-05-29 11:11:00,
2013-05-29 07:17:00,52.7,48.0,30.13,North,0,1.0,0.0,84,0.00,,CLR,-99.99,VWS V14.01,2013-05-29 11:17:00,
2013-05-29 07:23:00,52.5,47.8,30.14,North,0,1.0,0.0,84,0.00,,CLR,-99.99,VWS V14.01,2013-05-29 11:23:00,
2013-05-29 07:29:00,52.5,47.8,30.14,North,0,1.0,0.0,84,0.00,,CLR,-99.99,VWS V14.01,2013-05-29 11:29:00,
2013-05-29 07:35:00,52.3,47.9,30.14,North,0,1.0,0.0,85,0.00,,CLR,-99.99,VWS V14.01,2013-05-29 11:35:00,
2013-05-29 07:40:00,52.1,47.7,30.14,North,0,1.0,0.0,85,0.00,,CLR,-99.99,VWS V14.01,2013-05-29 11:40:00,
2013-05-29 07:45:00,52.1,47.7,30.14,North,0,1.0,0.0,85,0.00,,CLR,-99.99,VWS V14.01,2013-05-29 11:45:00,
2013-05-29 07:50:00,52.3,47.9,30.14,North,0,1.0,0.0,85,0.00,,CLR,-99.99,VWS V14.01,2013-05-29 11:50:00,
2013-05-29 07:55:00,52.3,48.2,30.13,North,0,1.0,0.0,86,0.00,,CLR,-99.99,VWS V14.01,2013-05-29 11:55:00,
2013-05-29 08:00:00,52.3,48.2,30.13,North,0,1.0,0.0,86,0.00,,CLR,-99.99,VWS V14.01,2013-05-29 12:00:00,
2013-05-29 08:05:00,52.3,48.2,30.13,North,0,1.0,0.0,86,0.00,,CLR,-99.99,VWS V14.01,2013-05-29 12:05:00,
2013-05-29 08:10:00,52.5,48.4,30.13,North,0,1.0,0.0,86,0.00,,CLR,-99.99,VWS V14.01,2013-05-29 12:10:00,
2013-05-29 08:15:00,52.5,48.1,30.12,North,0,1.0,0.0,85,0.00,,CLR,-99.99,VWS V14.01,2013-05-29 12:15:00,
2013-05-29 08:20:00,52.5,48.1,30.12,North,0,1.0,0.0,85,0.00,,CLR,-99.99,VWS V14.01,2013-05-29 12:20:00,
2013-05-29 08:25:00,52.5,48.1,30.12,North,0,1.0,0.0,85,0.00,,CLR,-99.99,VWS V14.01,2013-05-29 12:25:00,
2013-05-29 08:30:00,52.5,48.1,30.12,North,0,1.0,0.0,85,0.00,,CLR,-99.99,VWS V14.01,2013-05-29 12:30:00,
2013-05-29 08:35:00,52.5,48.1,30.12,North,0,1.0,0.0,85,0.00,,CLR,-99.99,VWS V14.01,2013-05-29 12:35:00,
2013-05-29 08:40:00,52.5,48.1,30.12,North,0,1.0,0.0,85,0.00,,CLR,-99.99,VWS V14.01,2013-05-29 12:40:00,
2013-05-29 08:45:00,52.7,48.3,30.12,North,0,1.0,0.0,85,0.00,,CLR,-99.99,VWS V14.01,2013-05-29 12:45:00,
2013-05-29 08:50:00,52.5,48.1,30.11,North,0,1.0,0.0,85,0.00,,CLR,-99.99,VWS V14.01,2013-05-29 12:50:00,
2013-05-29 08:55:00,52.5,48.1,30.11,North,0,1.0,0.0,85,0.00,,CLR,-99.99,VWS V14.01,2013-05-29 12:55:00,
2013-05-29 09:00:00,52.5,48.1,30.12,North,0,1.0,0.0,85,0.00,,CLR,-99.99,VWS V14.01,2013-05-29 13:00:00,
2013-05-29 09:05:00,52.5,48.1,30.11,North,0,1.0,0.0,85,0.00,,CLR,-99.99,VWS V14.01,2013-05-29 13:05:00,
2013-05-29 09:10:00,52.7,48.3,30.11,North,0,1.0,0.0,85,0.00,,CLR,-99.99,VWS V14.01,2013-05-29 13:10:00,
2013-05-29 09:15:00,52.8,48.4,30.11,North,0,1.0,0.0,85,0.00,,CLR,-99.99,VWS V14.01,2013-05-29 13:15:00,
2013-05-29 09:20:00,52.8,48.4,30.11,North,0,1.0,0.0,85,0.00,,CLR,-99.99,VWS V14.01,2013-05-29 13:20:00,
2013-05-29 09:25:00,53.0,48.6,30.12,North,0,1.0,0.0,85,0.00,,CLR,-99.99,VWS V14.01,2013-05-29 13:25:00,
2013-05-29 09:30:00,52.8,48.7,30.11,North,0,1.0,0.0,86,0.00,,CLR,-99.99,VWS V14.01,2013-05-29 13:30:00,
2013-05-29 09:35:00,52.8,48.7,30.11,North,0,1.0,0.0,86,0.00,,CLR,-99.99,VWS V14.01,2013-05-29 13:35:00,
2013-05-29 09:40:00,52.8,48.7,30.11,North,0,1.0,0.0,86,0.00,,CLR,-99.99,VWS V14.01,2013-05-29 13:40:00,
2013-05-29 09:45:00,52.8,48.7,30.11,North,0,1.0,0.0,86,0.00,,CLR,-99.99,VWS V14.01,2013-05-29 13:45:00,
2013-05-29 09:50:00,52.8,48.7,30.11,North,0,1.0,0.0,86,0.00,,CLR,-99.99,VWS V14.01,2013-05-29 13:50:00,
2013-05-29 09:55:00,52.8,49.0,30.11,North,0,1.0,0.0,87,0.00,,CLR,-99.99,VWS V14.01,2013-05-29 13:55:00,
2013-05-29 10:00:00,53.2,49.4,30.11,North,0,1.0,0.0,87,0.00,,CLR,-99.99,VWS V14.01,2013-05-29 14:00:00,
2013-05-29 10:05:00,53.4,49.6,30.11,North,0,1.0,0.0,87,0.00,,CLR,-99.99,VWS V14.01,2013-05-29 14:05:00,
2013-05-29 10:10:00,53.7,50.2,30.10,North,0,1.0,0.0,88,0.00,,CLR,-99.99,VWS V14.01,2013-05-29 14:10:00,
2013-05-29 10:15:00,53.7,50.2,30.10,North,0,1.0,0.0,88,0.00,,CLR,-99.99,VWS V14.01,2013-05-29 14:15:00,
2013-05-29 10:20:00,53.9,50.4,30.10,North,0,1.0,0.0,88,0.00,,CLR,-99.99,VWS V14.01,2013-05-29 14:20:00,
2013-05-29 10:25:00,54.3,50.8,30.11,North,0,1.0,0.0,88,0.00,,CLR,-99.99,VWS V14.01,2013-05-29 14:25:00,
2013-05-29 10:30:00,54.3,50.8,30.11,North,0,1.0,0.0,88,0.00,,CLR,-99.99,VWS V14.01,2013-05-29 14:30:00,
2013-05-29 10:35:00,54.6,51.1,30.11,North,0,1.0,0.0,88,0.00,,CLR,-99.99,VWS V14.01,2013-05-29 14:35:00,
2013-05-29 10:40:00,54.8,51.3,30.10,North,0,1.0,0.0,88,0.00,,CLR,-99.99,VWS V14.01,2013-05-29 14:40:00,
2013-05-29 10:45:00,55.2,51.7,30.10,North,0,1.0,0.0,88,0.00,,CLR,-99.99,VWS V14.01,2013-05-29 14:45:00,
2013-05-29 10:50:00,55.2,51.7,30.10,North,0,1.0,0.0,88,0.00,,CLR,-99.99,VWS V14.01,2013-05-29 14:50:00,
2013-05-29 10:55:00,55.5,52.0,30.09,North,0,1.0,0.0,88,0.00,,CLR,-99.99,VWS V14.01,2013-05-29 14:55:00,
2013-05-29 11:00:00,55.9,52.1,30.09,North,0,1.0,0.0,87,0.00,,CLR,-99.99,VWS V14.01,2013-05-29 15:00:00,
2013-05-29 11:06:00,56.3,52.5,30.09,North,0,1.0,0.0,87,0.00,,CLR,-99.99,VWS V14.01,2013-05-29 15:06:00,
2013-05-29 11:12:00,57.0,53.2,30.09,North,0,1.0,0.0,87,0.00,,CLR,-99.99,VWS V14.01,2013-05-29 15:12:00,
2013-05-29 11:18:00,57.3,53.2,30.08,North,0,1.0,0.0,86,0.00,,CLR,-99.99,VWS V14.01,2013-05-29 15:18:00,
2013-05-29 11:24:00,57.0,52.9,30.08,North,0,1.0,0.0,86,0.00,,CLR,-99.99,VWS V14.01,2013-05-29 15:24:00,
2013-05-29 11:30:00,56.4,52.0,30.08,North,0,1.0,0.0,85,0.00,,CLR,-99.99,VWS V14.01,2013-05-29 15:30:00,
2013-05-29 11:35:00,56.3,52.2,30.08,North,0,1.0,0.0,86,0.00,,CLR,-99.99,VWS V14.01,2013-05-29 15:35:00,
2013-05-29 11:40:00,55.9,51.8,30.08,North,0,1.0,0.0,86,0.00,,CLR,-99.99,VWS V14.01,2013-05-29 15:40:00,
2013-05-29 11:45:00,55.9,51.8,30.09,North,0,1.0,0.0,86,0.00,,CLR,-99.99,VWS V14.01,2013-05-29 15:45:00,
2013-05-29 11:50:00,55.9,52.1,30.08,North,0,1.0,0.0,87,0.00,,CLR,-99.99,VWS V14.01,2013-05-29 15:50:00,
2013-05-29 11:55:00,56.1,52.3,30.09,North,0,1.0,0.0,87,0.00,,CLR,-99.99,VWS V14.01,2013-05-29 15:55:00,
2013-05-29 12:00:00,56.1,52.3,30.09,North,0,1.0,0.0,87,0.00,,CLR,-99.99,VWS V14.01,2013-05-29 16:00:00,
2013-05-29 12:05:00,56.1,52.3,30.09,North,0,1.0,0.0,87,0.00,,CLR,-99.99,VWS V14.01,2013-05-29 16:05:00,
2013-05-29 12:10:00,55.9,52.1,30.09,North,0,1.0,0.0,87,0.00,,CLR,-99.99,VWS V14.01,2013-05-29 16:10:00,
2013-05-29 12:15:00,55.9,52.1,30.09,North,0,1.0,0.0,87,0.00,,CLR,-99.99,VWS V14.01,2013-05-29 16:15:00,
2013-05-29 12:20:00,56.1,52.3,30.09,North,0,1.0,0.0,87,0.00,,CLR,-99.99,VWS V14.01,2013-05-29 16:20:00,
2013-05-29 12:25:00,56.4,52.6,30.09,North,0,1.0,0.0,87,0.00,,CLR,-99.99,VWS V14.01,2013-05-29 16:25:00,
2013-05-29 12:30:00,56.4,52.6,30.09,North,0,1.0,0.0,87,0.00,,CLR,-99.99,VWS V14.01,2013-05-29 16:30:00,
2013-05-29 12:35:00,56.8,53.0,30.09,North,0,1.0,0.0,87,0.00,,CLR,-99.99,VWS V14.01,2013-05-29 16:35:00,
2013-05-29 12:40:00,57.0,53.2,30.09,North,0,1.0,0.0,87,0.00,,CLR,-99.99,VWS V14.01,2013-05-29 16:40:00,
2013-05-29 12:45:00,57.0,53.2,30.09,North,0,1.0,0.0,87,0.00,,CLR,-99.99,VWS V14.01,2013-05-29 16:45:00,
2013-05-29 12:50:00,57.2,53.4,30.09,North,0,1.0,0.0,87,0.00,,CLR,-99.99,VWS V14.01,2013-05-29 16:50:00,
2013-05-29 12:55:00,57.0,52.9,30.08,North,0,1.0,0.0,86,0.00,,CLR,-99.99,VWS V14.01,2013-05-29 16:55:00,
2013-05-29 13:00:00,57.2,53.1,30.08,North,0,1.0,0.0,86,0.00,,CLR,-99.99,VWS V14.01,2013-05-29 17:00:00,
2013-05-29 13:06:00,57.3,53.5,30.09,North,0,1.0,0.0,87,0.00,,CLR,-99.99,VWS V14.01,2013-05-29 17:06:00,
2013-05-29 13:12:00,57.3,53.5,30.08,North,0,1.0,0.0,87,0.00,,CLR,-99.99,VWS V14.01,2013-05-29 17:12:00,
2013-05-29 13:17:00,57.5,53.3,30.08,North,0,1.0,0.0,86,0.00,,CLR,-99.99,VWS V14.01,2013-05-29 17:17:00,
2013-05-29 13:23:00,57.7,53.5,30.08,North,0,1.0,0.0,86,0.00,,CLR,-99.99,VWS V14.01,2013-05-29 17:23:00,
2013-05-29 13:29:00,57.5,53.3,30.09,North,0,1.0,0.0,86,0.00,,CLR,-99.99,VWS V14.01,2013-05-29 17:29:00,
2013-05-29 13:35:00,57.7,53.5,30.08,North,0,1.0,0.0,86,0.00,,CLR,-99.99,VWS V14.01,2013-05-29 17:35:00,
2013-05-29 13:40:00,57.9,53.7,30.08,North,0,1.0,0.0,86,0.00,,CLR,-99.99,VWS V14.01,2013-05-29 17:40:00,
2013-05-29 13:45:00,57.9,53.7,30.08,North,0,1.0,0.0,86,0.00,,CLR,-99.99,VWS V14.01,2013-05-29 17:45:00,
2013-05-29 13:50:00,57.9,53.7,30.08,North,0,1.0,0.0,86,0.00,,CLR,-99.99,VWS V14.01,2013-05-29 17:50:00,
2013-05-29 13:56:00,58.1,53.9,30.08,North,0,1.0,0.0,86,0.00,,CLR,-99.99,VWS V14.01,2013-05-29 17:56:00,
2013-05-29 14:01:00,58.1,53.9,30.08,North,0,1.0,0.0,86,0.00,,CLR,-99.99,VWS V14.01,2013-05-29 18:01:00,
2013-05-29 14:06:00,58.2,54.0,30.08,North,0,1.0,0.0,86,0.00,,CLR,-99.99,VWS V14.01,2013-05-29 18:06:00,
2013-05-29 14:11:00,58.2,54.0,30.08,North,0,1.0,0.0,86,0.00,,CLR,-99.99,VWS V14.01,2013-05-29 18:11:00,
2013-05-29 14:16:00,58.2,54.0,30.08,North,0,1.0,0.0,86,0.00,,CLR,-99.99,VWS V14.01,2013-05-29 18:16:00,
2013-05-29 14:21:00,58.2,54.0,30.08,North,0,1.0,0.0,86,0.00,,CLR,-99.99,VWS V14.01,2013-05-29 18:21:00,
2013-05-29 14:26:00,58.6,54.8,30.07,North,0,1.0,0.0,87,0.00,,CLR,-99.99,VWS V14.01,2013-05-29 18:26:00,
2013-05-29 14:32:00,58.8,55.0,30.07,North,0,1.0,0.0,87,0.00,,CLR,-99.99,VWS V14.01,2013-05-29 18:32:00,
2013-05-29 14:37:00,58.8,55.0,30.07,North,0,1.0,0.0,87,0.00,,CLR,-99.99,VWS V14.01,2013-05-29 18:37:00,
2013-05-29 14:42:00,58.8,55.0,30.07,North,0,1.0,0.0,87,0.00,,CLR,-99.99,VWS V14.01,2013-05-29 18:42:00,
2013-05-29 14:47:00,58.8,55.0,30.06,North,0,1.0,0.0,87,0.00,,CLR,-99.99,VWS V14.01,2013-05-29 18:47:00,
2013-05-29 14:52:00,58.8,55.0,30.06,North,0,1.0,0.0,87,0.00,,CLR,-99.99,VWS V14.01,2013-05-29 18:52:00,
2013-05-29 14:57:00,58.8,55.0,30.06,North,0,1.0,0.0,87,0.00,,CLR,-99.99,VWS V14.01,2013-05-29 18:57:00,
2013-05-29 15:03:00,58.8,55.0,30.07,North,0,1.0,0.0,87,0.00,,CLR,-99.99,VWS V14.01,2013-05-29 19:03:00,
2013-05-29 15:09:00,58.8,55.0,30.06,North,0,1.0,0.0,87,0.00,,CLR,-99.99,VWS V14.01,2013-05-29 19:09:00,
2013-05-29 15:15:00,59.1,55.2,30.07,North,0,1.0,0.0,87,0.00,,CLR,-99.99,VWS V14.01,2013-05-29 19:15:00,
2013-05-29 15:20:00,59.9,56.0,30.07,North,0,1.0,0.0,87,0.00,,CLR,-99.99,VWS V14.01,2013-05-29 19:20:00,
2013-05-29 15:25:00,60.0,55.8,30.07,North,0,1.0,0.0,86,0.00,,CLR,-99.99,VWS V14.01,2013-05-29 19:25:00,
2013-05-29 15:30:00,60.4,55.9,30.06,North,0,1.0,0.0,85,0.00,,CLR,-99.99,VWS V14.01,2013-05-29 19:30:00,
2013-05-29 15:35:00,60.6,56.1,30.06,North,0,1.0,0.0,85,0.00,,CLR,-99.99,VWS V14.01,2013-05-29 19:35:00,
2013-05-29 15:40:00,61.3,56.4,30.07,North,0,1.0,0.0,84,0.00,,CLR,-99.99,VWS V14.01,2013-05-29 19:40:00,
2013-05-29 15:45:00,61.5,56.3,30.06,North,0,1.0,0.0,83,0.00,,CLR,-99.99,VWS V14.01,2013-05-29 19:45:00,
2013-05-29 15:50:00,61.8,56.6,30.05,North,0,1.0,0.0,83,0.00,,CLR,-99.99,VWS V14.01,2013-05-29 19:50:00,
2013-05-29 15:55:00,62.2,57.0,30.05,North,0,1.0,0.0,83,0.00,,CLR,-99.99,VWS V14.01,2013-05-29 19:55:00,
2013-05-29 16:00:00,62.0,56.5,30.05,North,0,1.0,0.0,82,0.00,,CLR,-99.99,VWS V14.01,2013-05-29 20:00:00,
2013-05-29 16:06:00,61.8,56.6,30.05,North,0,1.0,0.0,83,0.00,,CLR,-99.99,VWS V14.01,2013-05-29 20:06:00,
2013-05-29 16:12:00,62.2,57.0,30.05,North,0,1.0,0.0,83,0.00,,CLR,-99.99,VWS V14.01,2013-05-29 20:12:00,
2013-05-29 16:18:00,62.6,57.0,30.05,North,0,1.0,0.0,82,0.00,,CLR,-99.99,VWS V14.01,2013-05-29 20:18:00,
2013-05-29 16:24:00,62.2,56.6,30.05,North,0,1.0,0.0,82,0.00,,CLR,-99.99,VWS V14.01,2013-05-29 20:24:00,
2013-05-29 16:29:00,61.5,56.0,30.05,North,0,1.0,0.0,82,0.00,,CLR,-99.99,VWS V14.01,2013-05-29 20:29:00,
2013-05-29 16:35:00,61.3,56.1,30.05,North,0,1.0,0.0,83,0.00,,CLR,-99.99,VWS V14.01,2013-05-29 20:35:00,
2013-05-29 16:40:00,60.9,55.7,30.05,North,0,1.0,0.0,83,0.00,,CLR,-99.99,VWS V14.01,2013-05-29 20:40:00,
2013-05-29 16:45:00,60.9,55.7,30.05,North,0,1.0,0.0,83,0.00,,CLR,-99.99,VWS V14.01,2013-05-29 20:45:00,
2013-05-29 16:50:00,61.1,55.9,30.04,North,0,1.0,0.0,83,0.00,,CLR,-99.99,VWS V14.01,2013-05-29 20:50:00,
2013-05-29 16:55:00,61.3,56.1,30.04,North,0,1.0,0.0,83,0.00,,CLR,-99.99,VWS V14.01,2013-05-29 20:55:00,
2013-05-29 17:00:00,61.1,55.9,30.05,North,0,1.0,0.0,83,0.00,,CLR,-99.99,VWS V14.01,2013-05-29 21:00:00,
2013-05-29 17:06:00,60.9,56.0,30.05,North,0,1.0,0.0,84,0.00,,CLR,-99.99,VWS V14.01,2013-05-29 21:06:00,
2013-05-29 17:12:00,60.6,55.8,30.05,North,0,1.0,0.0,84,0.00,,CLR,-99.99,VWS V14.01,2013-05-29 21:12:00,
2013-05-29 17:18:00,60.4,55.5,30.05,North,0,1.0,0.0,84,0.00,,CLR,-99.99,VWS V14.01,2013-05-29 21:18:00,
2013-05-29 17:24:00,60.4,55.9,30.05,North,0,1.0,0.0,85,0.00,,CLR,-99.99,VWS V14.01,2013-05-29 21:24:00,
2013-05-29 17:30:00,60.0,55.5,30.04,North,0,1.0,0.0,85,0.00,,CLR,-99.99,VWS V14.01,2013-05-29 21:30:00,
2013-05-29 17:35:00,60.0,55.8,30.04,North,0,1.0,0.0,86,0.00,,CLR,-99.99,VWS V14.01,2013-05-29 21:35:00,
2013-05-29 17:40:00,60.0,55.8,30.04,North,0,1.0,0.0,86,0.00,,CLR,-99.99,VWS V14.01,2013-05-29 21:40:00,
2013-05-29 17:45:00,59.9,55.7,30.04,North,0,1.0,0.0,86,0.00,,CLR,-99.99,VWS V14.01,2013-05-29 21:45:00,
2013-05-29 17:50:00,59.7,55.8,30.03,North,0,1.0,0.0,87,0.00,,CLR,-99.99,VWS V14.01,2013-05-29 21:50:00,
2013-05-29 17:55:00,59.7,55.8,30.03,North,0,1.0,0.0,87,0.00,,CLR,-99.99,VWS V14.01,2013-05-29 21:55:00,
2013-05-29 18:00:00,59.7,55.8,30.03,North,0,1.0,0.0,87,0.00,,CLR,-99.99,VWS V14.01,2013-05-29 22:00:00,
2013-05-29 18:05:00,59.9,56.0,30.03,North,0,1.0,0.0,87,0.00,,CLR,-99.99,VWS V14.01,2013-05-29 22:05:00,
2013-05-29 18:11:00,60.0,56.1,30.02,North,0,1.0,0.0,87,0.00,,CLR,-99.99,VWS V14.01,2013-05-29 22:11:00,
2013-05-29 18:17:00,60.6,56.4,30.03,North,0,1.0,0.0,86,0.00,,CLR,-99.99,VWS V14.01,2013-05-29 22:17:00,
2013-05-29 18:23:00,60.9,56.7,30.02,North,0,1.0,0.0,86,0.00,,CLR,-99.99,VWS V14.01,2013-05-29 22:23:00,
2013-05-29 18:29:00,61.1,56.9,30.02,North,0,1.0,0.0,86,0.00,,CLR,-99.99,VWS V14.01,2013-05-29 22:29:00,
2013-05-29 18:35:00,60.8,56.3,30.02,North,0,1.0,0.0,85,0.00,,CLR,-99.99,VWS V14.01,2013-05-29 22:35:00,
2013-05-29 18:40:00,60.6,56.4,30.02,North,0,1.0,0.0,86,0.00,,CLR,-99.99,VWS V14.01,2013-05-29 22:40:00,
2013-05-29 18:45:00,60.6,56.4,30.02,North,0,1.0,0.0,86,0.00,,CLR,-99.99,VWS V14.01,2013-05-29 22:45:00,
2013-05-29 18:50:00,60.4,56.2,30.02,North,0,1.0,0.0,86,0.00,,CLR,-99.99,VWS V14.01,2013-05-29 22:50:00,
2013-05-29 18:55:00,60.4,56.2,30.01,North,0,1.0,0.0,86,0.00,,CLR,-99.99,VWS V14.01,2013-05-29 22:55:00,
2013-05-29 19:00:00,60.4,56.5,30.02,North,0,1.0,0.0,87,0.00,,CLR,-99.99,VWS V14.01,2013-05-29 23:00:00,
2013-05-29 19:06:00,60.6,56.7,30.01,North,0,1.0,0.0,87,0.00,,CLR,-99.99,VWS V14.01,2013-05-29 23:06:00,
2013-05-29 19:12:00,60.8,56.6,30.01,North,0,1.0,0.0,86,0.00,,CLR,-99.99,VWS V14.01,2013-05-29 23:12:00,
2013-05-29 19:18:00,60.8,56.6,30.01,North,0,1.0,0.0,86,0.00,,CLR,-99.99,VWS V14.01,2013-05-29 23:18:00,
2013-05-29 19:24:00,60.6,56.4,30.01,North,0,1.0,0.0,86,0.00,,CLR,-99.99,VWS V14.01,2013-05-29 23:24:00,
2013-05-29 19:30:00,60.2,56.3,30.01,North,0,1.0,0.0,87,0.00,,CLR,-99.99,VWS V14.01,2013-05-29 23:30:00,
2013-05-29 19:35:00,60.0,56.1,30.02,North,0,1.0,0.0,87,0.00,,CLR,-99.99,VWS V14.01,2013-05-29 23:35:00,
2013-05-29 19:40:00,59.9,56.0,30.01,North,0,1.0,0.0,87,0.00,,CLR,-99.99,VWS V14.01,2013-05-29 23:40:00,
2013-05-29 19:45:00,59.7,56.2,30.02,North,0,1.0,0.0,88,0.00,,CLR,-99.99,VWS V14.01,2013-05-29 23:45:00,
2013-05-29 19:51:00,59.5,56.0,30.02,North,0,1.0,0.0,88,0.00,,CLR,-99.99,VWS V14.01,2013-05-29 23:51:00,
2013-05-29 19:56:00,59.5,56.0,30.02,North,0,1.0,0.0,88,0.00,,CLR,-99.99,VWS V14.01,2013-05-29 23:56:00,
2013-05-29 20:02:00,59.5,56.3,30.02,North,0,1.0,0.0,89,0.00,,CLR,-99.99,VWS V14.01,2013-05-30 00:02:00,
2013-05-29 20:08:00,59.3,56.1,30.02,North,0,1.0,0.0,89,0.00,,CLR,-99.99,VWS V14.01,2013-05-30 00:08:00,
2013-05-29 20:14:00,59.3,56.4,30.02,North,0,1.0,0.0,90,0.00,,CLR,-99.99,VWS V14.01,2013-05-30 00:14:00,
2013-05-29 20:20:00,59.5,56.6,30.01,North,0,1.0,0.0,90,0.00,,CLR,-99.99,VWS V14.01,2013-05-30 00:20:00,
2013-05-29 20:25:00,59.3,56.4,30.01,North,0,1.0,0.0,90,0.00,,CLR,-99.99,VWS V14.01,2013-05-30 00:25:00,
2013-05-29 20:30:00,59.3,56.4,30.01,North,0,1.0,0.0,90,0.00,,CLR,-99.99,VWS V14.01,2013-05-30 00:30:00,
2013-05-29 20:35:00,59.3,56.4,30.01,North,0,1.0,0.0,90,0.00,,CLR,-99.99,VWS V14.01,2013-05-30 00:35:00,
2013-05-29 20:40:00,59.1,56.2,30.01,North,0,1.0,0.0,90,0.00,,CLR,-99.99,VWS V14.01,2013-05-30 00:40:00,
2013-05-29 20:45:00,59.1,56.2,30.01,North,0,1.0,0.0,90,0.00,,CLR,-99.99,VWS V14.01,2013-05-30 00:45:00,
2013-05-29 20:50:00,59.1,56.2,30.01,North,0,1.0,0.0,90,0.00,,CLR,-99.99,VWS V14.01,2013-05-30 00:50:00,
2013-05-29 20:55:00,59.0,56.1,30.01,North,0,1.0,0.0,90,0.00,,CLR,-99.99,VWS V14.01,2013-05-30 00:55:00,
2013-05-29 21:01:00,58.8,56.2,30.00,North,0,1.0,0.0,91,0.00,,CLR,-99.99,VWS V14.01,2013-05-30 01:01:00,
2013-05-29 21:06:00,58.8,56.2,30.00,North,0,1.0,0.0,91,0.00,,CLR,-99.99,VWS V14.01,2013-05-30 01:06:00,
2013-05-29 21:11:00,58.8,56.2,30.00,North,0,1.0,0.0,91,0.00,,CLR,-99.99,VWS V14.01,2013-05-30 01:11:00,
2013-05-29 21:17:00,58.8,56.2,30.00,North,0,1.0,0.0,91,0.00,,CLR,-99.99,VWS V14.01,2013-05-30 01:17:00,
2013-05-29 21:23:00,58.8,56.2,30.01,North,0,1.0,0.0,91,0.00,,CLR,-99.99,VWS V14.01,2013-05-30 01:23:00,
2013-05-29 21:29:00,58.8,56.2,30.00,North,0,1.0,0.0,91,0.00,,CLR,-99.99,VWS V14.01,2013-05-30 01:29:00,
2013-05-29 21:34:00,58.8,56.5,30.01,North,0,1.0,0.0,92,0.00,,CLR,-99.99,VWS V14.01,2013-05-30 01:34:00,
2013-05-29 21:40:00,58.8,56.5,30.01,North,0,1.0,0.0,92,0.00,,CLR,-99.99,VWS V14.01,2013-05-30 01:40:00,
2013-05-29 21:45:00,58.8,56.5,30.00,North,0,1.0,0.0,92,0.00,,CLR,-99.99,VWS V14.01,2013-05-30 01:45:00,
2013-05-29 21:51:00,58.8,56.5,30.01,North,0,1.0,0.0,92,0.00,,CLR,-99.99,VWS V14.01,2013-05-30 01:51:00,
2013-05-29 21:56:00,58.8,56.5,30.01,North,0,1.0,0.0,92,0.00,,CLR,-99.99,VWS V14.01,2013-05-30 01:56:00,
2013-05-29 22:01:00,58.8,56.5,30.01,North,0,1.0,0.0,92,0.00,,CLR,-99.99,VWS V14.01,2013-05-30 02:01:00,
2013-05-29 22:07:00,58.8,56.5,30.01,North,0,1.0,0.0,92,0.00,,CLR,-99.99,VWS V14.01,2013-05-30 02:07:00,
2013-05-29 22:13:00,58.8,56.5,30.01,North,0,1.0,0.0,92,0.00,,CLR,-99.99,VWS V14.01,2013-05-30 02:13:00,
2013-05-29 22:19:00,58.8,56.5,30.01,North,0,1.0,0.0,92,0.00,,CLR,-99.99,VWS V14.01,2013-05-30 02:19:00,
2013-05-29 22:25:00,58.8,56.5,30.00,North,0,1.0,0.0,92,0.00,,CLR,-99.99,VWS V14.01,2013-05-30 02:25:00,
2013-05-29 22:31:00,58.8,56.5,30.00,North,0,1.0,0.0,92,0.00,,CLR,-99.99,VWS V14.01,2013-05-30 02:31:00,
2013-05-29 22:36:00,59.1,56.8,30.01,North,0,1.0,0.0,92,0.00,,CLR,-99.99,VWS V14.01,2013-05-30 02:36:00,
2013-05-29 22:41:00,59.3,57.0,30.01,North,0,1.0,0.0,92,0.00,,CLR,-99.99,VWS V14.01,2013-05-30 02:41:00,
2013-05-29 22:46:00,59.3,57.0,30.01,North,0,1.0,0.0,92,0.00,,CLR,-99.99,VWS V14.01,2013-05-30 02:46:00,
2013-05-29 22:51:00,59.5,57.2,30.01,North,0,1.0,0.0,92,0.00,,CLR,-99.99,VWS V14.01,2013-05-30 02:51:00,
2013-05-29 22:56:00,59.3,57.0,30.02,North,0,1.0,0.0,92,0.00,,CLR,-99.99,VWS V14.01,2013-05-30 02:56:00,
2013-05-29 23:01:00,59.3,57.0,30.02,North,0,1.0,0.0,92,0.00,,CLR,-99.99,VWS V14.01,2013-05-30 03:01:00,
2013-05-29 23:06:00,59.3,57.0,30.02,North,0,1.0,0.0,92,0.00,,CLR,-99.99,VWS V14.01,2013-05-30 03:06:00,
2013-05-29 23:12:00,59.3,57.0,30.02,North,0,1.0,0.0,92,0.00,,CLR,-99.99,VWS V14.01,2013-05-30 03:12:00,
2013-05-29 23:18:00,59.3,57.0,30.02,North,0,1.0,0.0,92,0.00,,CLR,-99.99,VWS V14.01,2013-05-30 03:18:00,
2013-05-29 23:24:00,59.3,57.0,30.02,North,0,1.0,0.0,92,0.00,,CLR,-99.99,VWS V14.01,2013-05-30 03:24:00,
2013-05-29 23:30:00,59.5,57.5,30.02,North,0,1.0,0.0,93,0.00,,CLR,-99.99,VWS V14.01,2013-05-30 03:30:00,
2013-05-29 23:36:00,59.7,57.7,30.02,North,0,1.0,0.0,93,0.00,,CLR,-99.99,VWS V14.01,2013-05-30 03:36:00,
2013-05-29 23:41:00,59.9,57.9,30.02,North,0,1.0,0.0,93,0.00,,CLR,-99.99,VWS V14.01,2013-05-30 03:41:00,
2013-05-29 23:46:00,59.7,57.7,30.02,North,0,1.0,0.0,93,0.00,,CLR,-99.99,VWS V14.01,2013-05-30 03:46:00,
2013-05-29 23:51:00,59.5,57.5,30.02,North,0,1.0,0.0,93,0.00,,CLR,-99.99,VWS V14.01,2013-05-30 03:51:00,
2013-05-29 23:56:00,59.5,57.5,30.02,North,0,1.0,0.0,93,0.00,,CLR,-99.99,VWS V14.01,2013-05-30 03:56:00,